WS Maaseik 1 Meer informatie WS Maaseik 1


WS Maaseik 2 Meer informatie WS Maaseik 2


Regen radar Meer informatie rain snow radar


Bezoek onze andere website:

Vorige versie
weerstation Maaseik


Bezoek ook eens deze sites:

Weerstation Geleen



Het weer levert geen direct gevaar op.    Er zijn geen waarschuwingen afgegeven.

15 daagse weersverwachting Ven (BE)

  • Overzicht
  • Per uur
  • 15 dagen
  • Extra
  • Vergelijk
  • Kaarten
  • Dagkaart
  • Meer »
  • Info
  • Statistieken
  • Directe link
    Temp 6h Neerslag Wind  
 06:11     21:16    Daglengte: 15:05 Vandaag
14:00
20°
0.3 mm
2
20:00
21°
 
3
 06:12     21:14    Daglengte: 15:02 Morgen
02:00
17°
 
3
08:00
17°
4.0 mm
4
14:00
19°
8.7 mm
7
20:00
19°
1.3 mm
5
 06:14     21:12    Daglengte: 14:58 Zaterdag 07 Aug
02:00
16°
 
3
08:00
16°
9.8 mm
3
14:00
21°
6.7 mm
4
20:00
20°
10.5 mm
3
 06:15     21:11    Daglengte: 14:56 Zondag 08 Aug
02:00
16°
 
5
08:00
15°
16.6 mm
7
Locatie info
Region: Flanders
Latitude: 51.1151°N
Longitude: 5.7809°E
31 masl
Temp/Neerslag /Baro Onweer/Dauwpunt
    Temp Baro 1h Neerslag Dauwpunt Wind UV Bewolking  
 06:11     21:16    Daglengte: 15:05 Vandaag
12:00
20°
1009.7 hPa
24%
13.5°
1
Windvlaag: 2.5 m/s
21%
13:00
20°
1009.4 hPa 0.3 mm
39%
14.9°
1
Windvlaag: 2.7 m/s
25%
14:00
20°
1008.7 hPa
39%
16.2°
2
Windvlaag: 3.5 m/s
12%
15:00
21°
1008.0 hPa
20%
16.5°
2
Windvlaag: 3.1 m/s
69%
16:00
22°
1007.5 hPa
49%
14.5°
2
Windvlaag: 3.9 m/s
59%
17:00
22°
1006.8 hPa
18%
12.8°
2
Windvlaag: 4.7 m/s
72%
18:00
22°
1006.5 hPa   12.3°
2
Windvlaag: 4.5 m/s
54%
19:00
22°
1006.1 hPa   12.0°
2
Windvlaag: 3.6 m/s
38%
20:00
21°
1005.9 hPa   13.3°
3
Windvlaag: 4.3 m/s
11%
21:00
19°
1005.6 hPa   14.0°
2
Windvlaag: 4.4 m/s
12%
22:00
18°
1005.5 hPa   14.3°
3
Windvlaag: 3.7 m/s
14%
23:00
18°
1005.2 hPa   14.4°
3
Windvlaag: 4.4 m/s
19%
 06:12     21:14    Daglengte: 15:02 Morgen
00:00
17°
1004.7 hPa   14.6°
3
Windvlaag: 6.8 m/s
13%
01:00
17°
1003.9 hPa   14.7°
3
Windvlaag: 6.8 m/s
48%
02:00
17°
1003.5 hPa
15%
14.2°
3
Windvlaag: 7.1 m/s
70%
03:00
17°
1002.9 hPa
15%
13.6°
3
Windvlaag: 6.8 m/s
58%
04:00
16°
1002.4 hPa 1.0 mm
77%
14.1°
3
Windvlaag: 6.3 m/s
86%
05:00
16°
1001.9 hPa 1.7 mm
82%
14.7°
3
Windvlaag: 6.3 m/s
66%
06:00
17°
1001.7 hPa
67%
14.9°
4
Windvlaag: 6.4 m/s
78%
07:00
16°
1001.9 hPa
75%
15.1°
4
Windvlaag: 6.1 m/s
73%
08:00
17°
1002.1 hPa 1.4 mm
76%
15.2°
4
Windvlaag: 7.9 m/s
70%
09:00
17°
1002.5 hPa 1.2 mm
82%
14.8°
5
Windvlaag: 7.3 m/s
70%
10:00
18°
1002.8 hPa 1.3 mm
82%
15.4°
5
Windvlaag: 7.3 m/s
33%
11:00
18°
1003.2 hPa 1.6 mm
82%
15.8°
6
Windvlaag: 8 m/s
59%
12:00
19°
1003.3 hPa 1.4 mm
82%
15.6°
6
Windvlaag: 8.6 m/s
52%
13:00
19°
1003.5 hPa 1.3 mm
82%
15.3°
6
Windvlaag: 9.4 m/s
51%
14:00
19°
1003.8 hPa 1.8 mm
82%
14.2°
7
Windvlaag: 9.5 m/s
17%
15:00
19°
1004.0 hPa 1.3 mm
82%
13.7°
7
Windvlaag: 9.5 m/s
39%
16:00
20°
1004.0 hPa
82%
14.0°
7
Windvlaag: 8.8 m/s
14%
17:00
20°
1004.1 hPa
69%
14.6°
7
Windvlaag: 8.9 m/s
25%
18:00
20°
1004.3 hPa
23%
15.2°
6
Windvlaag: 10.2 m/s
12%
19:00
19°
1004.6 hPa
21%
14.8°
6
Windvlaag: 8.9 m/s
9%
20:00
19°
1005.0 hPa
14%
14.4°
5
Windvlaag: 7.1 m/s
7%
21:00
18°
1005.4 hPa
14%
13.7°
4
Windvlaag: 6.9 m/s
12%
22:00
17°
1005.8 hPa
14%
13.5°
4
Windvlaag: 6.3 m/s
6%
23:00
16°
1006.0 hPa
14%
12.9°
3
Windvlaag: 6.6 m/s
14%
 06:14     21:12    Daglengte: 14:58 Zaterdag 07 Aug
00:00
16°
1006.1 hPa
20%
13.1°
3
Windvlaag: 6.4 m/s
52%
01:00
16°
1005.9 hPa
17%
13.4°
3
Windvlaag: 7.8 m/s
59%
02:00
16°
1005.8 hPa
62%
12.9°
3
Windvlaag: 8.6 m/s
56%
03:00
16°
1005.5 hPa
71%
12.6°
3
Windvlaag: 6.1 m/s
58%
04:00
15°
1005.4 hPa
19%
13.1°
2
Windvlaag: 5.1 m/s
27%
05:00
15°
1004.9 hPa 2.4 mm
21%
12.4°
2
Windvlaag: 3.9 m/s
69%
06:00
14°
1004.7 hPa 2.4 mm
21%
12.2°
2
Windvlaag: 3.9 m/s
54%
07:00
15°
1004.6 hPa 2.4 mm
21%
13.0°
3
Windvlaag: 4.4 m/s
63%
08:00
16°
1004.5 hPa 2.5 mm
21%
13.4°
3
Windvlaag: 5.3 m/s
47%
09:00
17°
1004.5 hPa
21%
12.8°
4
Windvlaag: 6.5 m/s
59%
10:00
18°
1004.3 hPa
25%
11.1°
4
Windvlaag: 7.2 m/s
20%
11:00
19°
1003.9 hPa 2.6 mm
43%
10.4°
4
Windvlaag: 7.6 m/s
63%
12:00
20°
1003.6 hPa 2.4 mm
98%
10.7°
4
Windvlaag: 7.3 m/s
37%
13:00
21°
1003.0 hPa
40%
10.7°
4
Windvlaag: 7.1 m/s
55%
14:00
21°
1002.6 hPa 1.7 mm
99%
10.6°
4
Windvlaag: 6.9 m/s
83%
15:00
21°
1002.4 hPa 2.5 mm
95%
12.3°
4
Windvlaag: 6.3 m/s
25%
16:00
22°
1001.9 hPa
78%
12.6°
4
Windvlaag: 6.9 m/s
90%
17:00
22°
1001.7 hPa 2.6 mm
45%
12.0°
5
Windvlaag: 9.1 m/s
66%
18:00
21°
1001.6 hPa 2.7 mm
100%
11.1°
4
Windvlaag: 8 m/s
65%
19:00
20°
1001.6 hPa
53%
13.5°
4
Windvlaag: 6.5 m/s
88%
20:00
20°
1001.7 hPa 2.7 mm
45%
12.4°
3
Windvlaag: 5.7 m/s
82%
21:00
18°
1001.9 hPa
32%
13.0°
3
Windvlaag: 6.7 m/s
65%
22:00
18°
1002.3 hPa
21%
11.6°
3
Windvlaag: 7.5 m/s
49%
23:00
17°
1002.5 hPa
31%
9.6°
4
Windvlaag: 7.9 m/s
50%
 06:15     21:11    Daglengte: 14:56 Zondag 08 Aug
00:00
16°
1002.8 hPa
25%
10.7°
4
Windvlaag: 8.2 m/s
10%
01:00
16°
1003.0 hPa
21%
10.9°
5
Windvlaag: 7.6 m/s
54%
02:00
16°
1003.1 hPa
25%
12.8°
5
Windvlaag: 7.8 m/s
60%
03:00
16°
1003.0 hPa
22%
13.1°
5
Windvlaag: 9.2 m/s
97%
04:00
15°
1003.1 hPa
31%
12.7°
5
Windvlaag: 10.5 m/s
99%
05:00
15°
1003.3 hPa
89%
13.6°
6
Windvlaag: 10.1 m/s
98%
06:00
15°
1003.5 hPa
96%
13.0°
6
Windvlaag: 10.6 m/s
97%
07:00
15°
1003.7 hPa 2.7 mm
95%
13.4°
7
Windvlaag: 12.6 m/s
100%
08:00
15°
1004.4 hPa
85%
13.4°
7
Windvlaag: 16.5 m/s
95%
Temp/Neerslag /Baro Onweer/Dauwpunt
    Temp Baro Neerslag Dauwpunt Wind Bewolking  
 06:11     21:16    Daglengte: 15:05 Vandaag
14:00
20°
1008.7 hPa 0.3 mm 16.2°
2
12%
17:00
22°
1006.8 hPa   12.8°
2
72%
20:00
21°
1005.9 hPa   13.3°
3
11%
23:00
18°
1005.2 hPa   14.4°
3
19%
 06:12     21:14    Daglengte: 15:02 Morgen
02:00
17°
1003.5 hPa   14.2°
3
70%
05:00
16°
1001.9 hPa 2.7 mm 14.7°
3
66%
08:00
17°
1002.1 hPa 1.4 mm 15.2°
4
70%
11:00
18°
1003.2 hPa 4.1 mm 15.8°
6
59%
14:00
19°
1003.8 hPa 4.6 mm 14.2°
7
17%
17:00
20°
1004.1 hPa 1.3 mm 14.6°
7
25%
20:00
19°
1005.0 hPa   14.4°
5
7%
23:00
16°
1006.0 hPa   12.9°
3
14%
 06:14     21:12    Daglengte: 14:58 Zaterdag 07 Aug
02:00
16°
1005.8 hPa   12.9°
3
56%
05:00
15°
1004.9 hPa 2.4 mm 12.4°
2
69%
08:00
16°
1004.5 hPa 7.3 mm 13.4°
3
47%
11:00
19°
1003.9 hPa 2.6 mm 10.4°
4
63%
14:00
21°
1002.6 hPa 4.1 mm 10.6°
4
83%
17:00
22°
1001.7 hPa 5.1 mm 12.0°
5
66%
20:00
20°
1001.7 hPa 5.4 mm 12.4°
3
82%
23:00
17°
1002.5 hPa   9.6°
4
50%
 06:15     21:11    Daglengte: 14:56 Zondag 08 Aug
02:00
16°
1003.1 hPa   12.8°
5
60%
05:00
15°
1003.3 hPa   13.6°
6
98%
08:00
15°
1004.4 hPa 8.9 mm 13.4°
7
95%
11:00
16°
1008.0 hPa 11.1 mm 11.8°
8
1%
14:00
18°
1009.4 hPa 11.6 mm 13.9°
8
1%
17:00
20°
1010.7 hPa 12.8 mm 14.4°
8
1%
20:00
18°
1012.5 hPa 12.9 mm 12.0°
7
0%
23:00
15°
1014.7 hPa 12.9 mm 11.4°
4
0%
 06:17     21:09    Daglengte: 14:52 Maandag 09 Aug
02:00
14°
1015.5 hPa 12.9 mm 10.5°
5
0%
05:00
13°
1015.6 hPa 12.9 mm 9.8°
5
0%
08:00
15°
1016.7 hPa 12.9 mm 10.7°
5
0%
11:00
19°
1018.0 hPa 13.1 mm 12.0°
7
0%
14:00
20°
1018.5 hPa 13.5 mm 12.7°
7
0%
17:00
20°
1018.9 hPa 14.2 mm 13.7°
6
1%
20:00
17°
1019.8 hPa 15.6 mm 15.1°
4
1%
23:00
14°
1021.0 hPa 15.7 mm 13.8°
3
1%
 06:18     21:07    Daglengte: 14:49 Dinsdag 10 Aug
02:00
14°
1021.6 hPa 15.7 mm 13.1°
4
1%
05:00
13°
1021.5 hPa 15.7 mm 12.2°
4
0%
08:00
14°
1022.2 hPa 15.7 mm 12.8°
4
0%
11:00
19°
1022.7 hPa 15.7 mm 14.0°
5
1%
14:00
22°
1021.6 hPa 15.8 mm 13.4°
5
1%
17:00
23°
1020.9 hPa 15.9 mm 11.8°
4
1%
20:00
20°
1020.7 hPa 15.9 mm 14.4°
2
0%
23:00
17°
1021.3 hPa 15.9 mm 13.5°
3
0%
 06:20     21:05    Daglengte: 14:45 Woensdag 11 Aug
02:00
15°
1020.8 hPa 15.9 mm 13.4°
3
0%
05:00
15°
1020.1 hPa 15.9 mm 12.7°
3
0%
08:00
17°
1020.8 hPa 15.9 mm 12.9°
3
0%
11:00
22°
1020.9 hPa 15.9 mm 13.3°
4
0%
14:00
24°
1020.8 hPa 15.9 mm 13.9°
4
1%
17:00
25°
1020.4 hPa 15.9 mm 13.7°
3
1%
20:00
21°
1020.9 hPa 15.9 mm 15.0°
2
1%
23:00
20°
1022.2 hPa 15.9 mm 14.4°
1
1%
 06:21     21:03    Daglengte: 14:42 Donderdag 12 Aug
02:00
18°
1022.4 hPa 15.9 mm 13.8°
1
1%
05:00
18°
1021.9 hPa 15.9 mm 13.5°
2
1%
08:00
19°
1022.8 hPa 16.1 mm 15.0°
0
1%
11:00
23°
1023.3 hPa   14.5°
1
1%
14:00
24°
1023.0 hPa 33.6 mm 15.8°
2
1%
20:00
23°
1022.8 hPa 36.1 mm 17.7°
2
1%
 06:23     21:01    Daglengte: 14:38 Vrijdag 13 Aug
02:00
17°
1023.5 hPa 36.4 mm 15.6°
2
0%
08:00
18°
1023.0 hPa 36.4 mm 15.4°
3
1%
14:00
26°
1021.0 hPa 36.4 mm 15.9°
3
1%
20:00
24°
1018.2 hPa 36.4 mm 17.1°
3
0%
 06:24     20:59    Daglengte: 14:35 Zaterdag 14 Aug
02:00
18°
1016.8 hPa 36.4 mm 14.7°
3
0%
08:00
19°
1014.3 hPa 36.4 mm 14.7°
2
0%
14:00
29°
Voelt als: 28.9°
1011.1 hPa 36.4 mm 14.9°
3
0%
20:00
27°
1007.2 hPa 36.5 mm 19.4°
1
0%
 06:26     20:57    Daglengte: 14:31 Zondag 15 Aug
02:00
17°
1008.8 hPa 60.0 mm 14.8°
6
1%
08:00
15°
1014.4 hPa 0.5 mm 13.1°
3
67%
14:00
21°
1014.0 hPa 0.5 mm 13.5°
4
65%
20:00
19°
1013.6 hPa 0.6 mm 14.2°
2
56%
 06:27     20:55    Daglengte: 14:28 Maandag 16 Aug
02:00
15°
1014.1 hPa 0.4 mm 12.6°
2
50%
08:00
15°
1013.9 hPa 0.3 mm 13.0°
3
56%
14:00
21°
1014.4 hPa 0.8 mm 14.3°
4
57%
20:00
19°
1015.0 hPa 1.3 mm 14.3°
3
56%
 06:29     20:53    Daglengte: 14:24 Dinsdag 17 Aug
02:00
14°
1016.1 hPa   12.2°
2
51%
08:00
15°
1016.4 hPa 0.2 mm 12.9°
3
44%
14:00
21°
1016.4 hPa 0.8 mm 14.2°
4
52%
20:00
19°
1016.2 hPa 0.9 mm 14.6°
2
56%
 06:31     20:51    Daglengte: 14:20 Woensdag 18 Aug
02:00
15°
1016.8 hPa 0.3 mm 12.9°
2
49%
08:00
16°
1016.4 hPa 0.7 mm 13.6°
3
54%
14:00
22°
1015.9 hPa 0.6 mm 14.6°
4
58%
20:00
20°
1015.6 hPa 1.3 mm 15.0°
2
56%
 06:32     20:49    Daglengte: 14:17 Donderdag 19 Aug
02:00
15°
1016.5 hPa 1.2 mm 13.0°
2
45%
08:00
15°
1016.0 hPa 1.8 mm 13.3°
2
52%
14:00
22°
1015.2 hPa 1.1 mm 14.4°
3
53%
20:00
20°
1014.9 hPa 1.0 mm 14.9°
2
55%
 06:34     20:47    Daglengte: 14:13 Vrijdag 20 Aug
02:00
15°
1015.7 hPa 0.5 mm 12.5°
2
43%
08:00
15°
1015.4 hPa 0.3 mm 12.8°
2
47%
  CAPE Lifted Index Hail Supercell Tornado SRH 3km CL BTM PRES CL TOP PRES Swiss DWD icon SMHI TS
 06:11     21:16    Daglengte: 15:05 Vandaag
12:00 225 J/kg -0.2 K 0 % 0 % 0 % 0 m²/s² 0 0 0.22 80
13:00 208 J/kg 0.2 K 0 % 0 % 0 % 0 m²/s² 0 0 0.83 80
14:00 223 J/kg 0.1 K 0 % 0 % 0 % 0 m²/s² 0 0 1.06 2
15:00 187 J/kg 0.1 K 0 % 0 % 0 % 0 m²/s² 0 0 1.42 3
16:00 212 J/kg 0.1 K 0 % 0 % 0 % 0 m²/s² 0 0 1.42 3
17:00 197 J/kg -0.3 K 0 % 0 % 0 % 0 m²/s² 0 0 1.83 3
18:00 239 J/kg -0.4 K 0 % 0 % 0 % 0 m²/s² 0 0 2.36 3
19:00 234 J/kg -0.3 K 0 % 0 % 0 % 0 m²/s² 0 0 2.88 3
20:00 225 J/kg -0.3 K 0 % 0 % 0 % 0 m²/s² 0 0 3.06 0
21:00 175 J/kg -0.1 K 0 % 0 % 0 % 0 m²/s² 0 0 2.24 1
22:00 135 J/kg -0.1 K 0 % 0 % 0 % 0 m²/s² 0 0 2.36 2
23:00 147 J/kg -0.8 K 0 % 0 % 0 % 0 m²/s² 0 0 1.6 2
 06:12     21:14    Daglengte: 15:02 Morgen
00:00 108 J/kg -0.2 K 0 % 0 % 0 % 0 m²/s² 0 0 1.93 2
01:00 54 J/kg 0.3 K 0 % 0 % 0 % 0 m²/s² 0 0 1.38 3
02:00 0 J/kg 0.3 K 0 % 0 % 0 % 0 m²/s² 0 0 1.08 3
03:00 0 J/kg 0.3 K 0 % 0 % 0 % 0 m²/s² 0 0 0.63 3
04:00 0 J/kg 0.2 K 0 % 0 % 0 % 0 m²/s² 0 0 0.47 80
05:00 0 J/kg -1.4 K 0 % 0 % 0 % 0 m²/s² 0 0 -0.62 80
06:00 87 J/kg -0.8 K 0 % 0 % 0 % 0 m²/s² 0 0 0.55 3
07:00 83 J/kg -0.4 K 0 % 0 % 0 % 0 m²/s² 0 0 1.46 3
08:00 168 J/kg -0.2 K 0 % 0 % 0 % 0 m²/s² 0 0 1.78 3
09:00 97 J/kg 0.6 K 0 % 0 % 0 % 0 m²/s² 0 0 2.94 80
10:00 144 J/kg 0.1 K 0 % 0 % 0 % 0 m²/s² 0 0 2.23 80
11:00 230 J/kg -0.4 K 0 % 0 % 0 % 0 m²/s² 0 0 2.3 80
12:00 123 J/kg 0.5 K 0 % 0 % 0 % 0 m²/s² 0 0 3.05 80
13:00 108 J/kg 0.9 K 0 % 0 % 0 % 0 m²/s² 0 0 3.39 80
14:00 161 J/kg 0.5 K 0 % 0 % 0 % 0 m²/s² 0 0 3.29 80
15:00 148 J/kg 0.4 K 0 % 0 % 0 % 0 m²/s² 0 0 3.67 3
16:00 240 J/kg -0.3 K 0 % 0 % 0 % 0 m²/s² 0 0 0.78 2
17:00 409 J/kg -1.3 K 0 % 0 % 0 % 0 m²/s² 0 0 1.4 2
18:00 330 J/kg -1.0 K 0 % 0 % 0 % 0 m²/s² 0 0 -0.49 2
19:00 378 J/kg -1.3 K 0 % 0 % 0 % 0 m²/s² 0 0 1.46 2
20:00 270 J/kg -0.6 K 0 % 0 % 0 % 0 m²/s² 0 0 2.07 1
21:00 291 J/kg -0.3 K 0 % 0 % 0 % 0 m²/s² 0 0 1.02 2
22:00 208 J/kg 0.6 K 0 % 0 % 0 % 0 m²/s² 0 0 3.99 1
23:00 160 J/kg 1.5 K 0 % 0 % 0 % 0 m²/s² 0 0 4.89 2
 06:14     21:12    Daglengte: 14:58 Zaterdag 07 Aug
00:00 141 J/kg 2.5 K 0 % 0 % 0 % 0 m²/s² 0 0 5.53 2
01:00 34 J/kg 4.0 K 0 % 0 % 0 % 0 m²/s² 0 0 6.88 3
02:00 0 J/kg 3.8 K 0 % 0 % 0 % 0 m²/s² 0 0 6.29 3
03:00 0 J/kg 3.5 K 0 % 0 % 0 % 0 m²/s² 0 0 7.01 3
04:00 0 J/kg 3.1 K 0 % 0 % 0 % 0 m²/s² 0 0 5.83 2
05:00 0 J/kg 2.8 K 0 % 0 % 0 % 0 m²/s² 0 0 5.08 2
06:00 0 J/kg 2.6 K 0 % 0 % 0 % 0 m²/s² 0 0 5.24 2
07:00 19 J/kg 2.5 K 0 % 0 % 0 % 0 m²/s² 0 0 5.38 2
08:00 51 J/kg 2.1 K 0 % 0 % 0 % 0 m²/s² 0 0 4.83 2
09:00 72 J/kg 2.0 K 0 % 0 % 0 % 0 m²/s² 0 0 4.37 2
10:00 26 J/kg 2.4 K 0 % 0 % 0 % 0 m²/s² 0 0 4.74 2
11:00 23 J/kg 1.9 K 0 % 0 % 0 % 0 m²/s² 0 0 4.18 3
12:00 82 J/kg 1.0 K 0 % 0 % 0 % 0 m²/s² 0 0 3.28 2
13:00 157 J/kg 0.2 K 0 % 0 % 0 % 0 m²/s² 0 0 1.97 3
14:00 192 J/kg -0.1 K 0 % 0 % 0 % 0 m²/s² 0 0 1.01 80
15:00 182 J/kg -0.1 K 0 % 0 % 0 % 0 m²/s² 0 0 0.44 3
16:00 452 J/kg -1.5 K 0 % 0 % 0 % 0 m²/s² 0 0 -0.18 3
17:00 374 J/kg -1.3 K 0 % 0 % 0 % 0 m²/s² 0 0 0.23 2
18:00 522 J/kg -2.1 K 0 % 0 % 0 % 0 m²/s² 0 0 -0.99 3
19:00 458 J/kg -1.8 K 0 % 0 % 0 % 0 m²/s² 0 0 -0.15 3
20:00 610 J/kg -2.1 K 0 % 0 % 0 % 0 m²/s² 0 0 -0.45 3
21:00 558 J/kg -1.9 K 0 % 0 % 0 % 0 m²/s² 0 0 -0.46 3
22:00 423 J/kg -1.2 K 0 % 0 % 0 % 0 m²/s² 0 0 -0.48 3
23:00 282 J/kg -1.3 K 0 % 0 % 0 % 0 m²/s² 0 0 -0.79 3
 06:15     21:11    Daglengte: 14:56 Zondag 08 Aug
00:00 97 J/kg -0.6 K 0 % 0 % 0 % 0 m²/s² 0 0 -0.06 2
01:00 222 J/kg -2.5 K 0 % 0 % 0 % 0 m²/s² 0 0 -2.17 2
02:00 146 J/kg -0.6 K 0 % 0 % 0 % 0 m²/s² 0 0 -0.15 3
03:00 156 J/kg -0.8 K 0 % 0 % 0 % 0 m²/s² 0 0 -0.17 3
04:00 6 J/kg 0.7 K 0 % 0 % 0 % 0 m²/s² 0 0 1.21 3
05:00 15 J/kg 0.6 K 0 % 0 % 0 % 0 m²/s² 0 0 1.02 3
06:00 9 J/kg -0.6 K 0 % 0 % 0 % 0 m²/s² 0 0 -0.06 3
07:00 97 J/kg -1.0 K 0 % 0 % 0 % 0 m²/s² 0 0 -0.91 61
08:00 0 J/kg 1.1 K 0 % 0 % 0 % 0 m²/s² 0 0 1.64 3
Temp Baro Wind Neerslag
  EWN Forecast EWN WRFDA DWD ICON FMI HIRLAM MET Norway GFS
 06:11     21:16    Daglengte: 15:05 Vandaag
14:00 20.5° 1008.7 hPa 1.9 m/s 0.3 mm 22.7° 1007.5 hPa 1.3 m/s 0.0 mm 21.5° 1008.9 hPa 1.5 m/s -0.3 mm 20.4° 1008.4 hPa 2.1 m/s 0.0 mm 22.5° 1008.1 hPa 2.3 m/s
17:00 22.1° 1006.8 hPa 2.4 m/s 0.0 mm 23.1° 1005.9 hPa 2.4 m/s 0.0 mm 22.0° 1007.0 hPa 2.4 m/s 0.1 mm 22.0° 1006.6 hPa 2.7 m/s 0.0 mm 23.3° 1006.6 hPa 2.6 m/s
20:00 21.0° 1005.9 hPa 2.6 m/s 0.0 mm 22.4° 1004.9 hPa 2.5 m/s 0.0 mm 21.1° 1006.2 hPa 1.5 m/s 0.0 mm 20.7° 1005.8 hPa 2.8 m/s 0.0 mm 19.6° 1005.7 hPa 3.3 m/s
23:00 17.6° 1005.2 hPa 2.7 m/s 0.0 mm 17.9° 1004.2 hPa 3.0 m/s 0.0 mm 17.5° 1005.6 hPa 2.8 m/s 0.0 mm 17.2° 1005.3 hPa 2.2 m/s 0.0 mm 16.3° 1005.2 hPa 3.2 m/s
 06:12     21:14    Daglengte: 15:02 Morgen
02:00 16.9° 1003.5 hPa 3.5 m/s 0.0 mm 16.0° 1002.7 hPa 3.1 m/s 0.0 mm 17.2° 1003.7 hPa 3.5 m/s 0.0 mm 16.6° 1003.5 hPa 3.0 m/s 0.0 mm 15.9° 1003.6 hPa 3.8 m/s
05:00 16.4° 1001.9 hPa 3.4 m/s 2.7 mm 15.9° 1001.0 hPa 2.3 m/s 5.4 mm 16.6° 1002.6 hPa 4.3 m/s 0.8 mm 16.5° 1001.5 hPa 3.2 m/s 0.0 mm 15.4° 1002.5 hPa 4.9 m/s
08:00 16.7° 1002.1 hPa 4.3 m/s 1.4 mm 17.6° 1001.2 hPa 6.6 m/s 16.4 mm 16.8° 1002.6 hPa 4.0 m/s 0.4 mm 16.7° 1002.0 hPa 3.7 m/s 0.0 mm 16.3° 1002.8 hPa 5.8 m/s
11:00 18.1° 1003.2 hPa 5.9 m/s 4.1 mm 19.6° 1002.0 hPa 6.4 m/s 16.6 mm 18.8° 1003.3 hPa 5.8 m/s 0.8 mm 17.6° 1003.2 hPa 5.7 m/s 0.0 mm 18.1° 1003.6 hPa 7.1 m/s
14:00 19.3° 1003.8 hPa 6.9 m/s 4.6 mm 21.7° 1002.4 hPa 7.0 m/s 16.7 mm 19.5° 1003.9 hPa 6.2 m/s 1.4 mm 19.0° 1003.9 hPa 7.2 m/s 0.0 mm 20.4° 1003.9 hPa 8.4 m/s
17:00 19.7° 1004.1 hPa 6.6 m/s 1.3 mm 20.8° 1002.3 hPa 6.6 m/s 17.1 mm 21.7° 1004.1 hPa 6.7 m/s 0.2 mm 18.5° 1004.9 hPa 6.8 m/s 0.0 mm 19.9° 1004.5 hPa 7.3 m/s
20:00 18.6° 1005.0 hPa 4.6 m/s 0.0 mm 19.3° 1002.8 hPa 4.9 m/s 20.0 mm 20.3° 1004.8 hPa 4.1 m/s 0.0 mm 17.7° 1005.6 hPa 4.5 m/s 0.0 mm 18.3° 1005.1 hPa 5.6 m/s
23:00 16.3° 1006.0 hPa 3.4 m/s 0.0 mm 15.8° 1004.3 hPa 3.1 m/s 20.9 mm 16.3° 1005.7 hPa 2.5 m/s 0.0 mm 17.2° 1006.8 hPa 3.5 m/s 0.0 mm 14.5° 1006.0 hPa 3.5 m/s
 06:14     21:12    Daglengte: 14:58 Zaterdag 07 Aug
02:00 16.0° 1005.8 hPa 3.4 m/s 0.0 mm 14.7° 1004.0 hPa 3.4 m/s 20.9 mm 15.9° 1005.6 hPa 1.7 m/s 0.0 mm 16.7° 1006.5 hPa 3.9 m/s 0.0 mm 13.6° 1006.1 hPa 3.5 m/s
05:00 14.9° 1004.9 hPa 1.9 m/s 2.4 mm 14.3° 1003.6 hPa 2.9 m/s 20.9 mm 14.8° 1005.1 hPa 1.4 m/s 0.2 mm 13.7° 1005.8 hPa 3.2 m/s
08:00 15.9° 1004.5 hPa 3.2 m/s 7.3 mm 15.7° 1003.5 hPa 3.8 m/s 20.9 mm 15.9° 1004.9 hPa 3.0 m/s 0.0 mm 14.9° 1005.1 hPa 2.4 m/s
11:00 19.3° 1003.9 hPa 3.9 m/s 2.6 mm 19.1° 1003.1 hPa 3.8 m/s 20.9 mm 19.7° 1004.2 hPa 3.9 m/s 0.0 mm 18.6° 1004.2 hPa 4.1 m/s
14:00 21.4° 1002.6 hPa 4.3 m/s 4.1 mm 21.6° 1001.8 hPa 4.0 m/s 20.9 mm 21.2° 1002.9 hPa 4.1 m/s 0.3 mm 18.7° 1003.7 hPa 6.0 m/s
17:00 22.0° 1001.7 hPa 4.5 m/s 5.1 mm 22.0° 1000.9 hPa 4.2 m/s 21.0 mm 22.4° 1001.7 hPa 4.4 m/s 0.1 mm 19.6° 1003.4 hPa 6.1 m/s
20:00 19.6° 1001.7 hPa 3.0 m/s 5.4 mm 20.4° 1000.4 hPa 1.0 m/s 21.9 mm 19.5° 1001.7 hPa 3.1 m/s 0.1 mm 18.5° 1003.3 hPa 4.9 m/s
23:00 17.1° 1002.5 hPa 4.3 m/s 0.0 mm 19.3° 1000.9 hPa 4.1 m/s 22.7 mm 16.8° 1002.5 hPa 3.7 m/s 0.0 mm 15.8° 1003.9 hPa 5.2 m/s
 06:15     21:11    Daglengte: 14:56 Zondag 08 Aug
02:00 15.7° 1003.1 hPa 4.9 m/s 0.0 mm 15.5° 1001.2 hPa 4.9 m/s 23.1 mm 16.2° 1003.2 hPa 4.7 m/s 0.0 mm 14.9° 1004.4 hPa 5.6 m/s
05:00 15.4° 1003.3 hPa 5.9 m/s 0.0 mm 13.4° 1001.8 hPa 3.9 m/s 23.2 mm 15.9° 1003.7 hPa 6.4 m/s 0.0 mm 13.7° 1005.0 hPa 5.9 m/s
08:00 15.4° 1004.4 hPa 7.3 m/s 8.9 mm 14.1° 1003.0 hPa 8.3 m/s 26.2 mm 15.7° 1004.8 hPa 7.1 m/s 0.2 mm 14.2° 1006.4 hPa 7.4 m/s
11:00 15.6° 1008.0 hPa 7.8 m/s 11.1 mm 15.6° 1008.0 hPa 7.8 m/s 11.1 mm
14:00 17.8° 1009.4 hPa 7.7 m/s 11.6 mm 17.8° 1009.4 hPa 7.7 m/s 11.6 mm
17:00 19.5° 1010.7 hPa 7.9 m/s 12.8 mm 19.5° 1010.7 hPa 7.9 m/s 12.8 mm
20:00 18.2° 1012.5 hPa 7.1 m/s 12.9 mm 18.2° 1012.5 hPa 7.1 m/s 12.9 mm
23:00 14.8° 1014.7 hPa 4.4 m/s 12.9 mm 14.8° 1014.7 hPa 4.4 m/s 12.9 mm
 06:17     21:09    Daglengte: 14:52 Maandag 09 Aug
02:00 14.0° 1015.5 hPa 5.0 m/s 12.9 mm 14.0° 1015.5 hPa 5.0 m/s 12.9 mm
05:00 13.5° 1015.6 hPa 5.2 m/s 12.9 mm 13.5° 1015.6 hPa 5.2 m/s 12.9 mm
08:00 14.6° 1016.7 hPa 5.5 m/s 12.9 mm 14.6° 1016.7 hPa 5.5 m/s 12.9 mm
11:00 18.6° 1018.0 hPa 6.5 m/s 13.1 mm 18.6° 1018.0 hPa 6.5 m/s 13.1 mm
14:00 20.1° 1018.5 hPa 6.7 m/s 13.5 mm 20.1° 1018.5 hPa 6.7 m/s 13.5 mm
17:00 20.2° 1018.9 hPa 6.2 m/s 14.2 mm 20.2° 1018.9 hPa 6.2 m/s 14.2 mm
20:00 17.1° 1019.8 hPa 4.4 m/s 15.6 mm 17.1° 1019.8 hPa 4.4 m/s 15.6 mm
23:00 14.5° 1021.0 hPa 3.4 m/s 15.7 mm 14.5° 1021.0 hPa 3.4 m/s 15.7 mm
 06:18     21:07    Daglengte: 14:49 Dinsdag 10 Aug
02:00 13.8° 1021.6 hPa 3.9 m/s 15.7 mm 13.8° 1021.6 hPa 3.9 m/s 15.7 mm
05:00 12.6° 1021.5 hPa 3.8 m/s 15.7 mm 12.6° 1021.5 hPa 3.8 m/s 15.7 mm
08:00 13.9° 1022.2 hPa 4.2 m/s 15.7 mm 13.9° 1022.2 hPa 4.2 m/s 15.7 mm
11:00 18.9° 1022.7 hPa 5.0 m/s 15.7 mm 18.9° 1022.7 hPa 5.0 m/s 15.7 mm
14:00 22.5° 1021.6 hPa 4.9 m/s 15.8 mm 22.5° 1021.6 hPa 4.9 m/s 15.8 mm
17:00 22.7° 1020.9 hPa 4.2 m/s 15.9 mm 22.7° 1020.9 hPa 4.2 m/s 15.9 mm
20:00 20.4° 1020.7 hPa 2.5 m/s 15.9 mm 20.4° 1020.7 hPa 2.5 m/s 15.9 mm
23:00 16.8° 1021.3 hPa 2.9 m/s 15.9 mm 16.8° 1021.3 hPa 2.9 m/s 15.9 mm
 06:20     21:05    Daglengte: 14:45 Woensdag 11 Aug
02:00 15.2° 1020.8 hPa 2.6 m/s 15.9 mm 15.2° 1020.8 hPa 2.6 m/s 15.9 mm
05:00 14.7° 1020.1 hPa 2.5 m/s 15.9 mm 14.7° 1020.1 hPa 2.5 m/s 15.9 mm
08:00 16.5° 1020.8 hPa 2.6 m/s 15.9 mm 16.5° 1020.8 hPa 2.6 m/s 15.9 mm
11:00 21.6° 1020.9 hPa 3.8 m/s 15.9 mm 21.6° 1020.9 hPa 3.8 m/s 15.9 mm
14:00 23.7° 1020.8 hPa 3.9 m/s 15.9 mm 23.7° 1020.8 hPa 3.9 m/s 15.9 mm
17:00 25.5° 1020.4 hPa 3.3 m/s 15.9 mm 25.5° 1020.4 hPa 3.3 m/s 15.9 mm
20:00 21.0° 1020.9 hPa 2.1 m/s 15.9 mm 21.0° 1020.9 hPa 2.1 m/s 15.9 mm
23:00 20.0° 1022.2 hPa 0.6 m/s 15.9 mm 20.0° 1022.2 hPa 0.6 m/s 15.9 mm
 06:21     21:03    Daglengte: 14:42 Donderdag 12 Aug
02:00 18.3° 1022.4 hPa 0.8 m/s 15.9 mm 18.3° 1022.4 hPa 0.8 m/s 15.9 mm
05:00 17.9° 1021.9 hPa 1.9 m/s 15.9 mm 17.9° 1021.9 hPa 1.9 m/s 15.9 mm
08:00 18.9° 1022.8 hPa 0.2 m/s 16.1 mm 18.9° 1022.8 hPa 0.2 m/s 16.1 mm
11:00 22.9° 1023.3 hPa 0.7 m/s 16.4 mm 22.9° 1023.3 hPa 0.7 m/s 16.4 mm
14:00 24.2° 1023.0 hPa 2.3 m/s 17.2 mm 24.2° 1023.0 hPa 2.3 m/s 17.2 mm
20:00 22.9° 1022.8 hPa 1.7 m/s 18.2 mm 22.9° 1022.8 hPa 1.7 m/s 18.2 mm
 06:23     21:01    Daglengte: 14:38 Vrijdag 13 Aug
02:00 17.5° 1023.5 hPa 2.1 m/s 18.2 mm 17.5° 1023.5 hPa 2.1 m/s 18.2 mm
08:00 17.5° 1023.0 hPa 2.7 m/s 18.2 mm 17.5° 1023.0 hPa 2.7 m/s 18.2 mm
14:00 26.4° 1021.0 hPa 2.7 m/s 18.2 mm 26.4° 1021.0 hPa 2.7 m/s 18.2 mm
20:00 23.9° 1018.2 hPa 3.1 m/s 18.2 mm 23.9° 1018.2 hPa 3.1 m/s 18.2 mm
 06:24     20:59    Daglengte: 14:35 Zaterdag 14 Aug
02:00 18.2° 1016.8 hPa 2.5 m/s 18.2 mm 18.2° 1016.8 hPa 2.5 m/s 18.2 mm
08:00 19.1° 1014.3 hPa 2.2 m/s 18.2 mm 19.1° 1014.3 hPa 2.2 m/s 18.2 mm
14:00 29.1° 1011.1 hPa 2.9 m/s 18.2 mm 29.1° 1011.1 hPa 2.9 m/s 18.2 mm
20:00 26.6° 1007.2 hPa 1.2 m/s 18.3 mm 26.6° 1007.2 hPa 1.2 m/s 18.3 mm
 06:26     20:57    Daglengte: 14:31 Zondag 15 Aug
02:00 17.1° 1008.8 hPa 5.8 m/s 30.8 mm 17.1° 1008.8 hPa 5.8 m/s 30.8 mm
08:00 15.2° 1014.4 hPa 3.0 m/s 0.5 mm
14:00 20.7° 1014.0 hPa 3.5 m/s 0.5 mm
20:00 18.9° 1013.6 hPa 2.3 m/s 0.6 mm
 06:27     20:55    Daglengte: 14:28 Maandag 16 Aug
02:00 14.9° 1014.1 hPa 2.3 m/s 0.4 mm
08:00 15.1° 1013.9 hPa 3.0 m/s 0.3 mm
14:00 21.3° 1014.4 hPa 4.2 m/s 0.8 mm
20:00 19.2° 1015.0 hPa 2.5 m/s 1.3 mm
 06:29     20:53    Daglengte: 14:24 Dinsdag 17 Aug
02:00 14.5° 1016.1 hPa 2.1 m/s 0.0 mm
08:00 15.0° 1016.4 hPa 3.0 m/s 0.2 mm
14:00 21.4° 1016.4 hPa 3.7 m/s 0.8 mm
20:00 19.3° 1016.2 hPa 1.9 m/s 0.9 mm
 06:31     20:51    Daglengte: 14:20 Woensdag 18 Aug
02:00 15.2° 1016.8 hPa 2.2 m/s 0.3 mm
08:00 15.6° 1016.4 hPa 2.8 m/s 0.7 mm
14:00 21.6° 1015.9 hPa 3.6 m/s 0.6 mm
20:00 19.5° 1015.6 hPa 1.7 m/s 1.3 mm
 06:32     20:49    Daglengte: 14:17 Donderdag 19 Aug
02:00 15.1° 1016.5 hPa 1.9 m/s 1.2 mm
08:00 15.4° 1016.0 hPa 2.2 m/s 1.8 mm
14:00 21.9° 1015.2 hPa 2.6 m/s 1.1 mm
20:00 19.6° 1014.9 hPa 1.9 m/s 1.0 mm
 06:34     20:47    Daglengte: 14:13 Vrijdag 20 Aug
02:00 14.7° 1015.7 hPa 1.5 m/s 0.5 mm
08:00 14.9° 1015.4 hPa 2.0 m/s 0.3 mm
FMI Hirlam - 7.5 km EWN WRFDA - 12 km DWD ICON - 7 km GFS - 25 km Basiskaart






























































Updatetijd (Europe/Brussels) Resolutie Lengte Stap
FMI Hirlam 07:00, 13:00, 19:00, 01:00 7.5 km 49h 1h
EWN WRFDA 04:15, 10:15, 16:15, 22:15 12 km 73h 1h
DWD ICON 11:45, 17:45, 23:45, 05:45 7 km 75h 1h
GFS 08:30, 14:30, 20:30, 02:30 25 km 237h 3h
30+ mm
25-30 mm
20-25 mm
15-20 mm
10-15 mm
6-10 mm
4-6 mm
2-4 mm
1-2 mm
0.5-1 mm
0.2-0.5 mm
0.1-0.2 mm
30+ mm
25-30 mm
20-25 mm
15-20 mm
10-15 mm
6-10 mm
4-6 mm
2-4 mm
1-2 mm
0.5-1 mm
0.2-0.5 mm
0.1-0.2 mm
Sneeuwval
Natte sneeuw
Hagel
Vorst
30+ mm
25-30 mm
20-25 mm
15-20 mm
10-15 mm
6-10 mm
4-6 mm
2-4 mm
1-2 mm
0.5-1 mm
0.2-0.5 mm
0.1-0.2 mm
Sneeuwval
Natte sneeuw
Hagel
Vorst
Onweer
50 mm
40 mm
30 mm
26 mm
22 mm
18 mm
14 mm
10 mm
9 mm
8 mm
7 mm
6 mm
5 mm
4.5 mm
4 mm
3.5 mm
3 mm
2.5 mm
2 mm
1.5 mm
1 mm
0.8 mm
0.6 mm
0.4 mm
0.2 mm
0.05 mm
35°
30°
25°
20°
15°
10°
-5°
-10°
-15°
-20°
-25°
-30°
-35°
33> m/s
29 m/s
25 m/s
21 m/s
17 m/s
14 m/s
11 m/s
8 m/s
5 m/s
3 m/s
0 m/s
2600 J/kg
2400 J/kg
2200 J/kg
2000 J/kg
1800 J/kg
1600 J/kg
1400 J/kg
1200 J/kg
1000 J/kg
800 J/kg
600 J/kg
400 J/kg
200 J/kg
70 dBZ
65 dBZ
60 dBZ
55 dBZ
50 dBZ
45 dBZ
40 dBZ
35 dBZ
30 dBZ
25 dBZ
20 dBZ
15 dBZ
10 dBZ
5 dBZ
-1 K
-2 K
-3 K
-4 K
-5 K
-6 K
-7 K
-8 K
-9 K
950 m²/s²
900 m²/s²
850 m²/s²
800 m²/s²
750 m²/s²
700 m²/s²
650 m²/s²
600 m²/s²
550 m²/s²
500 m²/s²
450 m²/s²
400 m²/s²
350 m²/s²
300 m²/s²
250 m²/s²
200 m²/s²
150 m²/s²
100 m²/s²
46 m/s
44 m/s
42 m/s
40 m/s
38 m/s
36 m/s
34 m/s
32 m/s
30 m/s
28 m/s
26 m/s
24 m/s
22 m/s
20 m/s
16 m/s
12 m/s
8 m/s
4 m/s
30 m/s
28 m/s
26 m/s
24 m/s
22 m/s
20 m/s
18 m/s
16 m/s
14 m/s
12 m/s
10 m/s
8 m/s
6 m/s
4 m/s
2 m/s
3.0
2.8
2.6
2.4
2.2
2.0
1.8
1.6
1.4
1.2
1.0
0.8
0.6
0.4
0.2
15
14
13
12
11
10
9
8
7
6